Location: Unspecified
(42.3650°N, 71.1030°W)
Time: 17:24:51
(UTC+00:00)

S-56A Canister/Altair - Pass Details

Date: 30 June 2024
Orbit: 638 x 2487 km, 38.9° (Epoch: 20 July)

Event Time Altitude Azimuth Distance (km) Brightness Sun altitude
Rises 03:26:11 0° 277° (W) 4,282 11.7 -21.8°
Reaches altitude 10° 03:28:43 10° 274° (W) 3,526 11.2 -22.0°
Maximum altitude 03:37:56 61° 197° (SSW) 2,077 9.3 -22.5°
Enters shadow 03:48:09 19° 126° (SE) 4,129 10.8 -23.0°
